Long Beach, CA

4:24 AM PST on November 24, 2017 (GMT -0800)
Long Beach

Weather History for KLGB - October, 2014

Change the Weather History Date:

Saturday, October 25, 2014

  Actual Average Record
Temperature  
Mean Temperature 73 °F 66 °F  
Max Temperature 81 °F 76 °F 100 °F (2017)
Min Temperature 64 °F 56 °F 45 °F (1968)
Degree Days  
Heating Degree Days 0 1  
Month to date heating degree days 0 9  
Since 1 July heating degree days 0 10  
Cooling Degree Days 8 2  
Month to date cooling degree days 193 92  
Year to date cooling degree days 1630 1091  
Growing Degree Days 22 (Base 50)    
Moisture  
Dew Point 60 °F    
Average Humidity 66    
Maximum Humidity 93    
Minimum Humidity 39    
Precipitation  
Precipitation 0.00 in 0.03 in 0.08 in (2010)
Month to date precipitation 0.00 0.46  
Year to date precipitation 3.38 9.14  
Since 1 July precipitation 0.19  
Sea Level Pressure  
Sea Level Pressure 30.01 in    
Wind  
Wind Speed 6 mph (WNW)    
Max Wind Speed 16 mph    
Max Gust Speed 19 mph    
Visibility 9 miles    
Events      
T = Trace of Precipitation, MM = Missing Value Source: NWS Daily Summary

Daily Weather History Graph

Daily Weather History Graph

Search for Another Location

Airport or City:

Trip Planner

Search our weather history database for the weather conditions in past years. The results will help you decide how hot, cold, wet, or windy it might be!

Date:

Astronomy

Oct. 25, 2014 Rise Set
Actual Time 7:05 AM PDT 6:06 PM PDT
Civil Twilight 6:40 AM PDT 6:32 PM PDT
Nautical Twilight 6:11 AM PDT 7:01 PM PDT
Astronomical Twilight 5:42 AM PDT 7:30 PM PDT
Moon 8:45 AM PDT (10/25) 7:37 PM PDT (10/25)
Length of Visible Light 11h 52m
Length of Day
11h 01m
Waxing Crescent, 4% of the Moon is Illuminated
Oct 25
Waxing Crescent
Oct 30
First Quarter
Nov 6
Full
Nov 14
Last Quarter
Nov 22
New

Hourly Weather History & Observations

Time (PDT) Temp. Heat Index Dew Point Humidity Pressure Visibility Wind Dir Wind Speed Gust Speed Precip Events Conditions
12:53 AM 66.9 °F - 61.0 °F 81% 30.01 in 10.0 mi Calm Calm - N/A   Clear
1:53 AM 64.9 °F - 62.1 °F 90% 30.01 in 10.0 mi NW 5.8 mph - N/A   Clear
2:53 AM 64.9 °F - 62.1 °F 90% 29.99 in 8.0 mi NNE 3.5 mph - N/A   Clear
3:32 AM 64.9 °F - 62.1 °F 90% 29.99 in 8.0 mi Calm Calm - N/A   Partly Cloudy
3:48 AM 64.4 °F - 62.6 °F 94% 29.99 in 9.0 mi WSW 4.6 mph - N/A   Mostly Cloudy
3:53 AM 64.9 °F - 62.1 °F 90% 29.99 in 9.0 mi West 4.6 mph - N/A   Mostly Cloudy
4:10 AM 64.9 °F - 62.1 °F 90% 29.98 in 9.0 mi West 3.5 mph - N/A   Mostly Cloudy
4:53 AM 64.0 °F - 62.1 °F 93% 29.98 in 9.0 mi NW 4.6 mph - N/A   Overcast
5:53 AM 64.9 °F - 62.1 °F 90% 29.99 in 8.0 mi NNW 4.6 mph - N/A   Overcast
6:53 AM 66.0 °F - 62.1 °F 87% 30.01 in 8.0 mi NW 4.6 mph - N/A   Overcast
7:00 AM 66.0 °F - 63.0 °F 90% 30.01 in 8.0 mi NW 3.5 mph - N/A   Overcast
7:53 AM 66.0 °F - 62.1 °F 87% 30.02 in 7.0 mi NW 3.5 mph - N/A   Overcast
8:53 AM 70.0 °F - 62.1 °F 76% 30.04 in 10.0 mi NW 4.6 mph - N/A   Clear
9:53 AM 73.0 °F - 61.0 °F 66% 30.05 in 10.0 mi Calm Calm - N/A   Scattered Clouds
10:53 AM 73.9 °F - 62.1 °F 66% 30.05 in 10.0 mi Variable 5.8 mph - N/A   Clear
11:53 AM 79.0 °F - 55.9 °F 45% 30.04 in 10.0 mi West 5.8 mph - N/A   Partly Cloudy
12:53 PM 79.0 °F - 59.0 °F 50% 30.04 in 10.0 mi West 8.1 mph - N/A   Partly Cloudy
1:53 PM 80.1 °F 79.9 °F 53.1 °F 39% 30.02 in 10.0 mi Variable 5.8 mph - N/A   Scattered Clouds
2:53 PM 79.0 °F - 54.0 °F 42% 30.01 in 10.0 mi WNW 11.5 mph - N/A   Partly Cloudy
3:53 PM 77.0 °F - 55.0 °F 47% 30.00 in 10.0 mi WNW 11.5 mph - N/A   Clear
4:53 PM 75.0 °F - 57.0 °F 53% 29.99 in 10.0 mi WNW 8.1 mph - N/A   Clear
5:53 PM 72.0 °F - 55.0 °F 55% 29.98 in 10.0 mi WNW 11.5 mph - N/A   Clear
6:53 PM 70.0 °F - 60.1 °F 71% 29.99 in 10.0 mi WNW 9.2 mph - N/A   Clear
7:53 PM 69.1 °F - 61.0 °F 75% 30.00 in 10.0 mi NW 9.2 mph - N/A   Clear
8:53 PM 70.0 °F - 62.1 °F 76% 30.01 in 10.0 mi West 9.2 mph - N/A   Clear
9:53 PM 69.1 °F - 62.1 °F 78% 30.01 in 10.0 mi West 5.8 mph - N/A   Clear
10:53 PM 69.1 °F - 62.1 °F 78% 30.01 in 10.0 mi West 5.8 mph - N/A   Clear
11:53 PM 66.9 °F - 63.0 °F 87% 30.01 in 10.0 mi NW 4.6 mph - N/A   Clear